Home > Weather > Wittlich > Past weeks

Flag for Germany Weather for the Past 2 Weeks in Wittlich, Rhineland-Palatinate, Germany

Now
55 °F

Passing clouds.


Feels Like: 52 °F
Forecast: 34 / 60 °F
Wind: 8 mph from Northwest

Location: Spangdahlem

Current Time: May 3, 2016 at 7:24:58 PM

Latest Report: May 3, 2016 at 6:58 PM


Visibility: N/A

Pressure: 30.22 "Hg

Humidity: 40%

Dew Point: 31 °F

Location of WittlichLocation

Historic Weather in Wittlich — Graph

°F

Wittlich Temperature Yesterday

Maximum temperature yesterday: 66 °F (at 5:58 PM)
Minimum temperature yesterday: 39 °F (at 6:58 AM)
Average temperature yesterday: 53 °F

High & Low Weather Summary for the Past Weeks

 TemperatureHumidityPressure
High67 °F (Apr 21, 3:58 PM)100% (Apr 26, 12:58 AM)30.40 "Hg (Apr 26, 12:58 AM)
Low30 °F (Apr 25, 4:58 AM)22% (Apr 21, 3:58 PM)29.57 "Hg (Apr 26, 2:04 PM)
Average44 °F72%30.02 "Hg
* Reported Apr 18 5:59 PM — May 3 5:58 PM, Wittlich, Weather by CustomWeather, © 2016

Note: Actual official high and low records may vary slightly from our data, if they occured in-between our weather recording intervals... More about our weather records

Advertising

Wittlich Weather History for the Previous 24 Hours

Scroll right to see more
 ConditionsComfort  
Time TempWeatherWind HumidityBarometerVisibility
5:58 PM
Tue, May 3
55 °FSunny.15 mph42%30.21 "HgN/A
4:58 PM55 °FPassing clouds.13 mph44%30.20 "HgN/A
3:58 PM55 °FScattered clouds.13 mph47%30.18 "HgN/A
3:03 PM48 °FLight rain. Broken clouds.5 mph71%30.21 "HgN/A
2:58 PM50 °FLight rain. Broken clouds.7 mph71%30.21 "HgN/A
1:58 PM48 °FMore clouds than sun.6 mph76%30.19 "HgN/A
12:58 PM52 °FPartly sunny.8 mph65%30.16 "HgN/A
11:58 AM47 °FPartly sunny.6 mph81%30.16 "HgN/A
10:58 AM51 °FPartly sunny.6 mph65%30.14 "HgN/A
9:58 AM49 °FPassing clouds.6 mph79%30.12 "HgN/A
8:59 AM48 °FMore clouds than sun.8 mph82%30.13 "HgN/A
8:04 AM46 °FLight rain. Mostly cloudy.6 mph93%30.12 "HgN/A
7:03 AM46 °FRain. Fog.5 mph87%30.10 "Hg5 mi
6:58 AM46 °FRain. Fog.6 mph87%30.07 "Hg3 mi
6:02 AM46 °FPassing clouds.3 mph82%30.09 "HgN/A
5:58 AM46 °FLight rain. Partly cloudy.5 mph82%30.05 "HgN/A
4:58 AM47 °FPassing clouds.3 mph75%30.06 "HgN/A
3:58 AM48 °FOvercast.5 mph75%30.06 "HgN/A
1:58 AM49 °FPassing clouds.5 mph81%30.08 "HgN/A
12:58 AM50 °FClear.6 mph78%30.10 "HgN/A
11:58 PM
Mon, May 2
52 °FClear.3 mph72%30.09 "HgN/A
10:58 PM54 °FPassing clouds.3 mph57%30.09 "HgN/A
9:58 PM56 °FClear.5 mph47%30.09 "HgN/A
8:58 PM60 °FSunny.2 mph38%30.08 "HgN/A
7:58 PM61 °FSunny.5 mph40%30.09 "HgN/A
Weather by CustomWeather, © 2016

See weather overviewHow to use our weather pages